{"data":{"norad_id":53587,"intl_designator":"2022-103A","name":"BEIJING-3B","alt_names":[],"object_type":"PAYLOAD","status":"ACTIVE","operator":null,"country":"PRC","launch_date":"2022-08-24","launch_site_code":"TAISC","launch_vehicle":null,"mission":null,"orbit_class":"UNKNOWN","rcs_meters":null,"size_class":null,"mass_kg":null,"dimensions":null,"purposes":[],"wikipedia_slug":null,"has_3d_model":false,"image_url":null,"decayed_at":null,"tle_current":{"epoch":"2026-05-25T04:55:57.119808Z","epoch_age_seconds":60841,"freshness":"FRESH","line1":"1 53587U 22103A   26145.20552222  .00001099  00000+0  12775-3 0  9997","line2":"2 53587  97.8012 223.0184 0026149 127.9994 232.3589 14.87126364203672","mean_motion":14.87126364,"eccentricity":0.0026149,"inclination_deg":97.8012,"raan_deg":223.0184,"arg_perigee_deg":127.9994,"mean_anomaly_deg":232.3589,"bstar":0.00012775,"rev_number":20367,"period_min":96.831045085285,"perigee_km":588.6543189913,"apogee_km":625.18476770169,"semimajor_km":6985.0565433465,"source":"CELESTRAK","updated_at":"2026-05-25T13:37:58.259271Z"}}}